"Pseudo-MPEC" for P11gQwc

Created 2021 Jun 13 23:07:23 UT using Find_Orb

Click here for an explanation of pseudo-MPECs

 
 Astrometry: 
     P11gQwc  C2021 06 08V+Y-TJ6?*Voy#hi#,$js4K.xl$HbTTI1`(rnRb37s(jvKYy17C*%F51
     P11gQwc  C2021 06 08olX;K#%56u/ci;KW,D9vu/t*!hg[8(,?`eT@V))?LED]+Cw(o78SF51
     P11gQwc  C2021 06 08l0Bsw#1Zc*AstrometrytN8:^AD#nCQNE(VcRH!+:fMgc*Swm7qvF51
     P11gQwc |C2021 06 09P2Zq08eS:q'_y8Q:W].Cdvao)^@0lJB'BR?a_3X@L2redacted;X807
     P11gQwc |C2021 06 09Ncr+')eWj4:(P48C_ZJ[fCB%0UF\g$d*QI+2RJCv8]%hK=e0R5kr807
     P11gQwc |C2021 06 092hxBCD$dBn-lS?x#u;S^%qIiI95BK#tnrLdtIX\;2U9ir4_%hw*`807
     P11gQwc ^C2021 06 09.27592915 37 32.844-31 05 04.84   ~69C7 21.96GVNEOCP568
     P11gQwc ^C2021 06 09.27788315 37 32.606-31 05 00.20   ~69C7 22.03GVNEOCP568
     P11gQwc ^C2021 06 09.27886515 37 32.485-31 04 57.82   ~69C7 22.11GVNEOCP568
     P11gQwc |C2021 06 10FNc_c+e@Y3@Q9^bb#(=qLi_eoNbSh.[QHD]3p8H9v(mjYOaP!+6f807
     P11gQwc |C2021 06 10TNa,7C]9AtL`kRm?OuAv?!%ZQ[eAG?_P'kA$OZE#`_nf8;+A6'=U807
     P11gQwc |C2021 06 10\v6gWU/YOHc0:*4CY$?oD1d)R!0I0lEclickZ#VC6_kyo_])\!]%807
     P11gQwc |C2021 06 135R#F,Rq=!\c!here\CXl@nQ2mFKP).+Fk05w3\m?4e6jGk]wIPrq807
     P11gQwc |C2021 06 13[*\/n?=y?.cU+PkyIY:I?::k=,c4BGR$WCtS=]prhFcAJB9dFXX:807
     P11gQwc |C2021 06 135IXugF=4Suk-s@;6#1.forEexplanation2KA\GZmmX.([@#H@A]807

Station data:
(568) Mauna Kea  (N19.826116 W155.472200)  US/Hawaii.
(807) Cerro Tololo Observatory, La Serena  (S30.169136 W70.805900)  Chile.
(F51) Pan-STARRS 1, Haleakala  (N20.707235 W156.255910)  US/Hawaii.
   Observers N. Primak, A. Schultz, S. Watters, J. Thiel, T. Goggia. Measurer
   PS1 Science Consortium. 1.8-m Ritchey-Chrétien + CCD.

Orbital elements:  P11gQwc
   Perihelion 2020 Oct 14.010915 +/- 0.512945 TT =  0:15:43 (JD 2459136.510915)
Epoch 2021 Jun 13.0 TT = JDT 2459378.5   Earth MOID: 0.1331   AutoNEOCP
M 173.85915386 +/- 0.4472330        (J2000 ecliptic)
n   0.71845865 +/- 0.00231027       Peri.  175.83074 +/- 0.2760477
a   1.23462441 +/- 0.00264659       Node   259.15427 +/- 0.1101736
e   0.3108244 +/- 0.00160362        Incl.   29.11429 +/- 0.3462326
P   1.37/501.06d           H 21.4   G  0.15   U  8.7  
q 0.85087294 +/- 0.000798924    Q 1.61837587 +/- 0.00532335
From 15 observations 2021 June 8-13; mean residual 0".14
Residuals in arcseconds: 
210608 F51  .04+  .06-    210609 807  .29+  .09+    210610 807  .12+  .01+    
210608 F51  .26-  .13-    210609 568  .05+  .05+    210610 807  .38-  .25-    
210608 F51  .00   .04+    210609 568  .10+  .00     210613 807  .15-  .07+    
210609 807  .04+  .23+    210609 568  .11+  .02+    210613 807  .01+  .03-    
210609 807  .01+  .01-    210610 807  .17-  .01-    210613 807  .17+  .03-    

Ephemerides (geocentric):
Date (UTC) HH   RA              Dec         delta   r     elong  mag " sig PA
---- -- -- --  -------------   -----------  ------ ------ -----  --- ---- ---
2021 06 13 23  15 29 11.115   -27 58 24.17  .64633 1.6174 152.7 22.4 .349  65
2021 06 14 00  15 29 07.134   -27 56 46.61  .64651 1.6174 152.6 22.4 .367  65
2021 06 14 01  15 29 03.161   -27 55 09.10  .64669 1.6174 152.6 22.4 .385  65
2021 06 14 02  15 28 59.197   -27 53 31.62  .64687 1.6174 152.5 22.4 .404  65
2021 06 14 03  15 28 55.241   -27 51 54.20  .64705 1.6174 152.5 22.4 .422  66
2021 06 14 04  15 28 51.293   -27 50 16.82  .64723 1.6174 152.4 22.4 .441  66
2021 06 14 05  15 28 47.354   -27 48 39.48  .64741 1.6174 152.4 22.4 .461  66
2021 06 14 06  15 28 43.423   -27 47 02.19  .64760 1.6174 152.3 22.4 .480  66
2021 06 14 07  15 28 39.501   -27 45 24.95  .64778 1.6175 152.3 22.4 .500  66
2021 06 14 08  15 28 35.587   -27 43 47.75  .64796 1.6175 152.2 22.4 .520  66
2021 06 14 09  15 28 31.681   -27 42 10.60  .64815 1.6175 152.2 22.4 .540  67
2021 06 14 10  15 28 27.784   -27 40 33.49  .64833 1.6175 152.1 22.4 .561  67
2021 06 14 11  15 28 23.895   -27 38 56.43  .64852 1.6175 152.1 22.4 .582  67
2021 06 14 12  15 28 20.014   -27 37 19.42  .64870 1.6175 152.0 22.4 .603  67
2021 06 14 13  15 28 16.142   -27 35 42.45  .64889 1.6175 152.0 22.4 .624  67
2021 06 14 14  15 28 12.279   -27 34 05.54  .64907 1.6175 151.9 22.4 .646  67
2021 06 14 15  15 28 08.423   -27 32 28.67  .64926 1.6175 151.9 22.4 .667  67
2021 06 14 16  15 28 04.576   -27 30 51.84  .64945 1.6175 151.8 22.4 .690  67
2021 06 14 17  15 28 00.738   -27 29 15.07  .64964 1.6176 151.8 22.4 .712  68
2021 06 14 18  15 27 56.908   -27 27 38.34  .64982 1.6176 151.7 22.4 .735  68
2021 06 14 19  15 27 53.086   -27 26 01.66  .65001 1.6176 151.7 22.4 .757  68
2021 06 14 20  15 27 49.272   -27 24 25.03  .65020 1.6176 151.6 22.4 .781  68
2021 06 14 21  15 27 45.467   -27 22 48.45  .65039 1.6176 151.6 22.4 .804  68
2021 06 14 22  15 27 41.671   -27 21 11.92  .65058 1.6176 151.5 22.4 .828  68
2021 06 14 23  15 27 37.882   -27 19 35.43  .65077 1.6176 151.5 22.4 .852  68
2021 06 15 00  15 27 34.102   -27 17 59.00  .65096 1.6176 151.4 22.4 .876  68
2021 06 15 01  15 27 30.331   -27 16 22.61  .65115 1.6176 151.4 22.4 .900  68
2021 06 15 02  15 27 26.567   -27 14 46.28  .65134 1.6176 151.3 22.4 .925  69
2021 06 15 03  15 27 22.812   -27 13 09.99  .65153 1.6177 151.2 22.4 .950  69
2021 06 15 04  15 27 19.066   -27 11 33.76  .65173 1.6177 151.2 22.4 .976  69
2021 06 15 05  15 27 15.328   -27 09 57.57  .65192 1.6177 151.1 22.4 1.00  69
2021 06 15 06  15 27 11.598   -27 08 21.44  .65211 1.6177 151.1 22.4 1.03  69
2021 06 15 07  15 27 07.876   -27 06 45.35  .65230 1.6177 151.0 22.4 1.05  69
2021 06 15 08  15 27 04.163   -27 05 09.32  .65250 1.6177 151.0 22.4 1.08  69
2021 06 15 09  15 27 00.458   -27 03 33.33  .65269 1.6177 150.9 22.4 1.11  69
2021 06 15 10  15 26 56.762   -27 01 57.40  .65289 1.6177 150.9 22.4 1.13  69
2021 06 15 11  15 26 53.073   -27 00 21.52  .65308 1.6177 150.8 22.4 1.16  69
2021 06 15 12  15 26 49.393   -26 58 45.69  .65328 1.6177 150.8 22.4 1.19  70
2021 06 15 13  15 26 45.722   -26 57 09.92  .65347 1.6177 150.7 22.4 1.22  70
2021 06 15 14  15 26 42.059   -26 55 34.19  .65367 1.6178 150.7 22.4 1.24  70
2021 06 15 15  15 26 38.404   -26 53 58.52  .65387 1.6178 150.6 22.4 1.27  70
2021 06 15 16  15 26 34.757   -26 52 22.90  .65407 1.6178 150.6 22.4 1.30  70
2021 06 15 17  15 26 31.119   -26 50 47.33  .65426 1.6178 150.5 22.4 1.33  70
2021 06 15 18  15 26 27.489   -26 49 11.82  .65446 1.6178 150.5 22.4 1.36  70
2021 06 15 19  15 26 23.867   -26 47 36.35  .65466 1.6178 150.4 22.4 1.39  70
2021 06 15 20  15 26 20.254   -26 46 00.94  .65486 1.6178 150.4 22.4 1.42  70
2021 06 15 21  15 26 16.648   -26 44 25.59  .65506 1.6178 150.3 22.5 1.45  70
2021 06 15 22  15 26 13.052   -26 42 50.28  .65526 1.6178 150.3 22.5 1.48  70